Location: Vihti�l�
(61.3833°N, 23.0667°E)
Time: 04:49:29
(UTC+00:00)

Cosmos 1833 Rocket - Pass Details

Date: 29 November 2020
Orbit: 834 x 838 km, 71.0° (Epoch: 22 January)

Event Time Altitude Azimuth Distance (km) Brightness Sun altitude
Exits shadow 03:26:07 38° 336° (NNW) 1,270 3.4 -24.8°
Maximum altitude 03:28:09 60° 38° (NE) 963 3.1 -24.5°
Drops below altitude 10° 03:33:42 10° 118° (ESE) 2,451 6.0 -23.8°
Sets 03:36:11 0° 122° (ESE) 3,382 6.8 -23.5°
